Flag for U.S.A. Weather past 2 weeks in Lansing, Michigan, U.S.A.

Now
67 °F

Passing clouds.


Feels Like: 67 °F
Forecast: 65 / 81 °F
Wind: 7 mph from Northeast

Location: Capital City Airport

Current Time: Aug 23, 2014 at 5:27:00 AM

Latest Report: Aug 23, 2014 at 4:53 AM


Visibility: 10 mi

Pressure: 30.01 "Hg

Humidity: 90%

Dew point: 64 °F

Location of LansingLocation

Historic Weather in Lansing — Graph

°F

Lansing temperature yesterday

Maximum temperature yesterday: 82 °F (at 4:53 PM)
Minimum temperature yesterday: 69 °F (at 2:53 AM)
Average temperature yesterday: 74 °F

Past Weeks' High & Low Weather Summary

 TemperatureHumidityPressure
High83 °F (Aug 10, 4:53 PM)97% (Aug 12, 5:58 AM)30.17 "Hg (Aug 12, 5:58 AM)
Low46 °F (Aug 15, 3:53 AM)41% (Aug 14, 3:53 PM)29.67 "Hg (Aug 12, 4:53 AM)
Average68 °F75%29.95 "Hg
* Reported Aug 8 3:53 AM — Aug 23 3:53 AM, Lansing, Weather by CustomWeather, © 2014

Note: Actual official high and low records may vary slightly from our data, if they occured in-between our weather recording intervals... More about our weather records

Advertising

Lansing weather history for previous 24 hours

 ConditionsComfort  
Time TempWeatherWind HumidityBarometerVisibility
3:53 AM
Aug 23
69 °FPartly cloudy.5 mph90%30.01 "Hg10 mi
2:53 AM72 °FOvercast.3 mph81%30.00 "Hg10 mi
1:53 AM71 °FMostly cloudy.5 mph87%30.01 "Hg10 mi
12:53 AM71 °FOvercast.3 mph84%30.03 "Hg10 mi
11:53 PM
Aug 22
71 °FMostly cloudy.6 mph84%30.02 "Hg10 mi
10:53 PM72 °FOvercast.8 mph84%30.01 "Hg10 mi
9:53 PM73 °FOvercast.7 mph84%30.00 "Hg10 mi
8:53 PM74 °FBroken clouds.6 mph82%29.99 "Hg10 mi
7:53 PM77 °FOvercast.9 mph79%29.97 "Hg8 mi
6:53 PM79 °FPartly sunny.6 mph74%29.96 "Hg10 mi
5:53 PM79 °FCloudy.7 mph74%29.96 "Hg10 mi
4:53 PM82 °FMostly cloudy.No wind65%29.96 "Hg10 mi
3:53 PM81 °FOvercast.5 mph69%29.95 "Hg9 mi
3:04 PM81 °FPartly sunny.6 mph69%29.98 "Hg10 mi
2:53 PM79 °FMostly cloudy.6 mph74%29.96 "Hg9 mi
1:53 PM79 °FMostly cloudy.7 mph72%29.97 "Hg10 mi
12:53 PM76 °FCloudy.9 mph82%29.99 "Hg10 mi
11:53 AM77 °FMostly cloudy.5 mph79%29.97 "Hg9 mi
10:53 AM74 °FFog.7 mph88%29.98 "Hg6 mi
10:00 AM72 °FFog.5 mph93%29.99 "Hg3 mi
9:00 AM71 °FFog.3 mph93%29.99 "Hg2 mi
7:53 AM70 °FFog.5 mph97%29.97 "Hg1 mi
6:53 AM70 °FFog.5 mph97%29.96 "Hg1 mi
5:53 AM71 °FFog.3 mph93%29.94 "Hg2 mi
5:02 AM71 °FFog.No wind93%29.95 "Hg2 mi
Weather by CustomWeather, © 2014

See weather overviewHow to use our weather pages